This demonstration page uses our WeatherBlox Daily Observations layout. Learn more.

Left ArrowRight Arrow

38.20091, -84.87328

Hourly Observations for September 18, 2022

Temp ( °F °C ) Dew Point ( °F °C ) Humidity (%) Winds ( mph kmh ) Pressure ( in mb ) Visibility ( mi km ) Precip ( " mm )
12:53 am 00:53 Mostly Clear 61 16.1 59 15 93 93 Calm 30.09 1019 10 16 0.00 0.00
1:53 am 01:53 Clear 60 15.6 58 14.4 93 93 Calm 30.08 1019 10 16 0.00 0.00
2:53 am 02:53 Clear 60 15.6 58 14.4 93 93 Calm 30.07 1018 10 16 0.00 0.00
3:53 am 03:53 Partly Cloudy 60 15.6 57 13.9 90 90 Calm 30.08 1019 10 16 0.00 0.00
4:53 am 04:53 Partly Cloudy 60 15.6 57 13.9 90 90 Calm 30.08 1019 10 16 0.00 0.00
5:53 am 05:53 Clear 57 13.9 56 13.3 96 96 Calm 30.08 1019 9 14 0.00 0.00
6:53 am 06:53 Clear 58 14.4 56 13.3 93 93 Calm 30.10 1019 10 16 0.00 0.00
7:53 am 07:53 Sunny 57 13.9 56 13.3 96 96 Calm 30.12 1020 9 14 0.00 0.00
8:53 am 08:53 Sunny 66 18.9 61 16.1 84 84 S 3 6 30.13 1020 10 16 0.00 0.00
9:53 am 09:53 Cloudy 69 20.6 61 16.1 75 75 SSW 6 9 30.13 1020 10 16 0.00 0.00
10:53 am 10:53 Mostly Cloudy 75 23.9 63 17.2 66 66 SW 8 13 30.14 1021 10 16 0.00 0.00
11:53 am 11:53 Mostly Cloudy 77 25 63 17.2 62 62 SSW 8 13 30.12 1020 10 16 0.00 0.00
12:53 pm 12:53 Sunny 82 27.8 63 17.2 53 53 WSW 9 15 30.10 1019 10 16 0.00 0.00
1:53 pm 13:53 Mostly Cloudy 84 28.9 59 15 43 43 WSW 7 11 30.09 1019 10 16 0.00 0.00
2:53 pm 14:53 Mostly Sunny 82 27.8 59 15 46 46 WSW 8 13 30.08 1019 10 16 0.00 0.00
3:53 pm 15:53 Mostly Sunny 84 28.9 60 15.6 45 45 S 8 13 30.05 1018 10 16 0.00 0.00
4:53 pm 16:53 Sunny 83 28.3 59 15 44 44 WSW 8 13 30.04 1017 10 16 0.00 0.00
5:53 pm 17:53 Mostly Sunny 83 28.3 60 15.6 46 46 SW 7 11 30.04 1017 10 16 0.00 0.00
6:53 pm 18:53 Sunny 81 27.2 60 15.6 49 49 SSW 5 7 30.04 1017 10 16 0.00 0.00
7:53 pm 19:53 Clear 72 22.2 64 17.8 76 76 Calm 30.04 1017 10 16 0.00 0.00
8:53 pm 20:53 Clear 70 21.1 63 17.2 78 78 SW 3 6 30.04 1017 10 16 0.00 0.00
9:53 pm 21:53 Clear 67 19.4 62 16.7 84 84 Calm 30.04 1017 10 16 0.00 0.00
10:53 pm 22:53 Clear 67 19.4 62 16.7 84 84 S 5 7 30.03 1017 10 16 0.00 0.00
11:53 pm 23:53 Clear 69 20.6 61 16.1 75 75 SSW 6 9 30.02 1017 10 16 0.00 0.00

Powered by AerisWeather